Air Resources Laboratory banner image
Air Resources Laboratory web site National Oceanic and Atmospheric Administration (NOAA)

wy roundup


Office: CYS

ASUS45 KCYS 102310
RWRWY

WYOMING REGIONAL WEATHER ROUNDUP
NATIONAL WEATHER SERVICE CHEYENNE WY
500 PM MDT WED AUG 10 2022

NOTE:  "FAIR" INDICATES FEW OR NO CLOUDS BELOW 12,000 FEET
WITH NO SIGNIFICANT WEATHER AND/OR OBSTRUCTIONS TO VISIBILITY.

WYZ001-110000-
YELLOWSTONE NATIONAL PARK

CITY           SKY/WX    TMP DP  RH WIND       PRES   REMARKS
LK YELLOWSTONE   N/A     80  38  22 VRB5      30.44F
W YELLOWSTONE  NOT AVBL

$$
WYZ002>013-054>058-071-098>099-110000-
NORTHERN WYOMING

CITY           SKY/WX    TMP DP  RH WIND       PRES   REMARKS
JACKSON        FAIR      80  48  32 W12       30.32S
CODY           FAIR      94  41  16 E6        30.15S HX  90
GREYBULL       FAIR     100  35  10 SE6       30.03F HX  94
WORLAND        FAIR     103  36  10 N5        30.05F HX  97
SHERIDAN       FAIR     103  44  13 SE7       30.05F HX  98
BUFFALO        FAIR      95  41  15 S14       30.15F HX  91
GILLETTE       FAIR      99  39  12 SE10      30.13F HX  94
HULETT         FAIR      95  54  24 E13       30.17F HX  93
NEWCASTLE      FAIR      97  34  11 S15G22    30.17F HX  91

$$
WYZ014>020-022>026-101>103-110000-
CENTRAL WYOMING

CITY           SKY/WX    TMP DP  RH WIND       PRES   REMARKS
BIG PINEY      PTSUNNY   84  47  27 W13       30.35S
PINEDALE       FAIR      86  32  14 SW13G20   30.35S
DUBOIS         MOCLDY    82  36  18 E5        30.35
LANDER         FAIR      94  42  16 SE9       30.17F HX  90
RIVERTON       FAIR      98  34  10 E9        30.17F HX  92
CASPER         FAIR      99  33  10 W3        30.17F HX  93
DOUGLAS        FAIR      97  38  13 SE21G29   30.19F HX  92

$$
WYZ021-027>030-104>119-110000-
SOUTHERN WYOMING

CITY           SKY/WX    TMP DP  RH WIND       PRES   REMARKS
EVANSTON       FAIR      87  43  21 SW14G26   30.34F
ROCK SPRINGS   FAIR      91  32  12 MISG      30.29F
DIXON          FAIR     N/A N/A N/A NE6       30.31F
RAWLINS        FAIR      93  33  12 CALM      30.31F
SARATOGA       FAIR      90  30  12 W5        30.34F
LARAMIE        FAIR      85  36  17 S13G24    30.39F
CHEYENNE       FAIR      89  43  20 SE13      30.33F
TORRINGTON     FAIR      97  46  17 SE17G28   30.16F HX  93
PINE BLUFFS    FAIR      91  36  14 SE17      30.28F

$$


ASUS45 KCYS 102310
RWRWY

WYOMING REGIONAL WEATHER ROUNDUP
NATIONAL WEATHER SERVICE CHEYENNE WY
500 PM MDT WED AUG 10 2022

NOTE:  "FAIR" INDICATES FEW OR NO CLOUDS BELOW 12,000 FEET
WITH NO SIGNIFICANT WEATHER AND/OR OBSTRUCTIONS TO VISIBILITY.

WYZ001-110000-
...YELLOWSTONE NATIONAL PARK...

CITY           SKY/WX    TMP DP  RH WIND       PRES   REMARKS
LK YELLOWSTONE   N/A     80  38  22 VRB5      30.44F
W YELLOWSTONE  NOT AVBL

$$
WYZ002>013-054>058-071-098>099-110000-
...NORTHERN WYOMING...

CITY           SKY/WX    TMP DP  RH WIND       PRES   REMARKS
JACKSON        CLOUDY    80  48  32 W12       30.32S
CODY           PTSUNNY   94  41  16 E6        30.15S HX  90
GREYBULL       SUNNY    100  35  10 SE6       30.03F HX  94
WORLAND        SUNNY    103  36  10 N5        30.05F HX  97
SHERIDAN       MOSUNNY  103  44  13 SE7       30.05F HX  98
BUFFALO        MOSUNNY   95  41  15 S14       30.15F HX  91
GILLETTE       SUNNY     99  39  12 SE10      30.13F HX  94
HULETT         MOSUNNY   95  54  24 E13       30.17F HX  93
NEWCASTLE      MOSUNNY   97  34  11 S15G22    30.17F HX  91

$$
WYZ014>020-022>026-101>103-110000-
...CENTRAL WYOMING...

CITY           SKY/WX    TMP DP  RH WIND       PRES   REMARKS
BIG PINEY      PTSUNNY   84  47  27 W13       30.35S
PINEDALE       PTSUNNY   86  32  14 SW13G20   30.35S
DUBOIS         PTSUNNY   82  36  18 E5        30.35S
LANDER         MOSUNNY   94  42  16 SE9       30.17F HX  90
RIVERTON       MOSUNNY   98  34  10 E9        30.17F HX  92
CASPER         MOSUNNY   99  33  10 W3        30.17F HX  93
DOUGLAS        SUNNY     97  38  13 SE21G29   30.19F HX  92

$$
WYZ021-027>030-104>119-110000-
...SOUTHERN WYOMING...

CITY           SKY/WX    TMP DP  RH WIND       PRES   REMARKS
EVANSTON       MOSUNNY   87  43  21 SW14G26   30.34F
KEMMERER       NOT AVBL
FORT BRIDGER   MOSUNNY   86  39  19 N7        30.37F
ROCK SPRINGS   MOSUNNY   91  32  12 MISG      30.29F
DIXON          MOSUNNY  N/A N/A N/A NE6       30.31F
RAWLINS        MOSUNNY   93  33  12 CALM      30.31F
SARATOGA       MOSUNNY   90  30  12 W5        30.34F
LARAMIE        SUNNY     85  36  17 S13G24    30.39F
CHEYENNE       SUNNY     89  43  20 SE13      30.33F
TORRINGTON     SUNNY     97  46  17 SE17G28   30.16F HX  93
PINE BLUFFS    MOSUNNY   91  36  14 SE17      30.28F

$$